Find STARLINK-37567

NORAD ID: 68903 Constellation: starlink operational
LEOCIRCULARRETROGRADE

リアルタイム位置

3D地球を読み込み中...

STARLINK-37567について

説明を読み込み中...

次回通過

Passes for default location (London). Set your location on the main map for personalized predictions.

高度履歴

Loading altitude history...

軌道要素

1 68903U 26097J 26125.50001156 -.02166252 13130-2 -56227-2 0 9994
2 68903 97.2875 320.4899 0001531 84.1844 137.5481 15.95211027 2060
Epoch: May 5, 2026 • Age: 8 hours